Change the Weather History Date:

Saturday, October 5, 2013

  Actual Average Record
Temperature  
Mean Temperature 74 °F -  
Max Temperature 82 °F 70 °F 84 °F (2001)
Min Temperature 66 °F 53 °F 48 °F (2002)
Cooling Degree Days 9    
Growing Degree Days 24 (Base 50)    
Moisture  
Dew Point 67 °F    
Average Humidity 77    
Maximum Humidity 94    
Minimum Humidity 54    
Precipitation  
Precipitation 0.00 in 0.11 in - ()
Sea Level Pressure  
Sea Level Pressure 30.05 in    
Wind  
Wind Speed 7 mph ()    
Max Wind Speed 14 mph    
Max Gust Speed 26 mph    
Visibility 5.9 miles    
Events Rain , Thunderstorm    
Averages and records for this station are not official NWS values.
T = Trace of Precipitation, MM = Missing Value Source: Averaged Metar Reports

Daily Weather History Graph

Daily Weather History Graph

Search for Another Location

Airport or City:

Trip Planner

Search our weather history database for the weather conditions in past years. The results will help you decide how hot, cold, wet, or windy it might be!

Date:

Astronomy

Oct. 05, 2013 Rise Set
Actual Time 7:27 AM CEST 7:02 PM CEST
Civil Twilight 7:00 AM CEST 7:29 PM CEST
Nautical Twilight 6:28 AM CEST 8:01 PM CEST
Astronomical Twilight 5:56 AM CEST 8:33 PM CEST
Moon 7:49 AM CEST (10/5) 7:10 PM CEST (10/5)
Length of Visible Light 12h 29m
Length of Day
11h 35m
New Moon, 0% of the Moon is Illuminated
Oct 5
New Moon
Oct 12
First Quarter
Oct 19
Full
Oct 27
Last Quarter
Nov 3
New

Hourly Weather History & Observations

Time (CEST) Temp. Heat Index Dew Point Humidity Pressure Visibility Wind Dir Wind Speed Gust Speed Precip Events Conditions
12:20 AM 75.2 °F - 68.0 °F 78% 30.01 in 6.2 mi NNE 5.8 mph - N/A Rain Light Rain
12:50 AM 73.4 °F - 68.0 °F 83% 30.01 in 6.2 mi Variable 4.6 mph - N/A   Scattered Clouds
1:20 AM 73.4 °F - 66.2 °F 78% 29.98 in 6.2 mi North 5.8 mph - N/A   Scattered Clouds
1:50 AM 77.0 °F - 66.2 °F 69% 30.01 in 6.2 mi NW 9.2 mph - N/A   Scattered Clouds
2:20 AM 75.2 °F - 68.0 °F 78% 30.04 in 6.2 mi NW 8.1 mph - N/A   Scattered Clouds
2:50 AM 73.4 °F - 69.8 °F 88% 30.06 in 6.2 mi NW 6.9 mph - N/A   Scattered Clouds
3:20 AM 75.2 °F - 69.8 °F 83% 30.06 in 6.2 mi NNW 8.1 mph - N/A   Scattered Clouds
3:50 AM 75.2 °F - 69.8 °F 83% 30.06 in 6.2 mi NE 5.8 mph - N/A Rain , Thunderstorm Light Thunderstorms and Rain
4:20 AM 68.0 °F - 64.4 °F 88% 30.15 in 1.2 mi WNW 13.8 mph 26.5 mph N/A Rain , Thunderstorm Heavy Thunderstorms and Rain
4:50 AM 66.2 °F - 64.4 °F 94% 30.15 in 3.1 mi NW 13.8 mph 25.3 mph N/A Rain , Thunderstorm Thunderstorms and Rain
5:20 AM 66.2 °F - 64.4 °F 94% 30.06 in 5.0 mi SE 10.4 mph - N/A Rain , Thunderstorm Light Thunderstorms and Rain
5:50 AM 69.8 °F - 66.2 °F 88% 30.01 in 6.2 mi East 6.9 mph - N/A   Scattered Clouds
6:20 AM 69.8 °F - 66.2 °F 88% 30.01 in 6.2 mi Variable 5.8 mph - N/A   Scattered Clouds
6:50 AM 75.2 °F - 64.4 °F 69% 30.04 in 6.2 mi Variable 8.1 mph - N/A   Scattered Clouds
7:20 AM 71.6 °F - 66.2 °F 83% 30.04 in 6.2 mi ENE 3.5 mph - N/A   Scattered Clouds
7:50 AM 69.8 °F - 66.2 °F 88% 30.01 in 6.2 mi NNE 3.5 mph - N/A   Partly Cloudy
8:20 AM 69.8 °F - 66.2 °F 88% 30.01 in - Variable 2.3 mph - N/A   Clear
8:50 AM 71.6 °F - 66.2 °F 83% 30.01 in - North 4.6 mph - N/A   Clear
9:20 AM 73.4 °F - 66.2 °F 78% 30.01 in - NNW 4.6 mph - N/A   Clear
9:50 AM 78.8 °F - 66.2 °F 65% 30.01 in - Variable 2.3 mph - N/A   Clear
10:20 AM 82.4 °F 84.6 °F 66.2 °F 58% 30.01 in - SSW 9.2 mph - N/A   Clear
10:50 AM 82.4 °F 84.6 °F 66.2 °F 58% 30.04 in - WSW 11.5 mph - N/A   Clear
11:20 AM 82.4 °F 83.9 °F 64.4 °F 54% 30.04 in - SW 11.5 mph - N/A   Clear
11:50 AM 80.6 °F 82.7 °F 66.2 °F 61% 30.04 in - SSW 13.8 mph - N/A   Clear
12:20 PM 80.6 °F 83.2 °F 68.0 °F 65% 30.06 in - SSW 13.8 mph - N/A   Clear
12:50 PM 80.6 °F 82.7 °F 66.2 °F 61% 30.06 in - SSW 12.7 mph - N/A   Clear
1:20 PM 82.4 °F 85.4 °F 68.0 °F 62% 30.06 in - SSW 9.2 mph - N/A   Clear
1:50 PM 80.6 °F 83.2 °F 68.0 °F 65% 30.06 in 6.2 mi West 9.2 mph - N/A   Partly Cloudy
2:20 PM 80.6 °F 83.2 °F 68.0 °F 65% 30.06 in 6.2 mi West 6.9 mph - N/A   Partly Cloudy
2:50 PM 78.8 °F - 69.8 °F 74% 30.06 in 6.2 mi West 8.1 mph - N/A   Partly Cloudy
3:20 PM 80.6 °F 83.9 °F 69.8 °F 70% 30.04 in 6.2 mi West 9.2 mph - N/A   Scattered Clouds
3:50 PM 78.8 °F - 69.8 °F 74% 30.04 in 6.2 mi West 10.4 mph - N/A   Partly Cloudy
4:20 PM 78.8 °F - 68.0 °F 69% 30.04 in 6.2 mi WNW 5.8 mph - N/A   Partly Cloudy
4:50 PM 77.0 °F - 68.0 °F 74% 30.04 in 6.2 mi West 9.2 mph - N/A   Partly Cloudy
5:20 PM 77.0 °F - 68.0 °F 74% 30.04 in 6.2 mi West 11.5 mph - N/A   Partly Cloudy
5:50 PM 75.2 °F - 69.8 °F 83% 30.04 in 6.2 mi WNW 6.9 mph - N/A   Mostly Cloudy
6:20 PM 73.4 °F - 68.0 °F 83% 30.06 in 6.2 mi WNW 4.6 mph - N/A   Scattered Clouds
6:50 PM 73.4 °F - 68.0 °F 83% 30.06 in 6.2 mi NNW 5.8 mph - N/A   Mostly Cloudy
7:20 PM 71.6 °F - 66.2 °F 83% 30.06 in 6.2 mi NNW 5.8 mph - N/A   Mostly Cloudy
7:50 PM 71.6 °F - 66.2 °F 83% 30.06 in 6.2 mi NNW 6.9 mph - N/A   Mostly Cloudy
8:20 PM 71.6 °F - 64.4 °F 78% 30.06 in 6.2 mi NNW 3.5 mph - N/A   Mostly Cloudy
8:50 PM 71.6 °F - 64.4 °F 78% 30.09 in 6.2 mi North 4.6 mph - N/A   Mostly Cloudy
9:20 PM 69.8 °F - 64.4 °F 83% 30.09 in 6.2 mi North 5.8 mph - N/A   Mostly Cloudy
9:50 PM 69.8 °F - 64.4 °F 83% 30.09 in 6.2 mi North 4.6 mph - N/A   Mostly Cloudy
10:20 PM 69.8 °F - 62.6 °F 78% 30.09 in 6.2 mi North 5.8 mph - N/A   Mostly Cloudy
10:50 PM 69.8 °F - 62.6 °F 78% 30.09 in 6.2 mi North 4.6 mph - N/A   Mostly Cloudy
11:20 PM 69.8 °F - 62.6 °F 78% 30.09 in 6.2 mi North 6.9 mph - N/A   Mostly Cloudy
11:50 PM 69.8 °F - 62.6 °F 78% 30.09 in 6.2 mi North 3.5 mph - N/A   Mostly Cloudy